Location: Dumpton Point
(51.3500°N, 1.4433°E)
Time: 16:55:01
(UTC+00:00)

Meteor 2-12 Rocket - Pass Details

Date: 09 April 2020
Orbit: 935 x 958 km, 82.5° (Epoch: 25 May)

Event Time Altitude Azimuth Distance (km) Brightness Sun altitude
Rises 20:45:15 0° 349° (NNW) 3,631 8.3 -18.0°
Reaches altitude 10° 20:47:46 10° 349° (N) 2,678 7.5 -18.3°
Maximum altitude 20:53:54 89° 76° (ENE) 949 4.4 -19.0°
Enters shadow 20:57:35 26° 170° (S) 1,776 5.4 -19.4°
